[[{"header":{"parameterUnit":"m.s-1","parameterCategory":1,"la1":30.2991,"la2":30.254,"lo1":-89.0895,"lo2":-89.0444,"dy":0.0017,"dx":0.0017,"nx":28,"ny":28,"refTime":"2025-06-06T09:00:00:Z","depth":0,"parameterNumber":2,"parameterNumberName":"U-component_of_WINDS"},"data":[0,0,0,0,0,0,0,0,0,0,0,0,0,0,0,0,0,0,0,0,0,0,0,0,0,0,0,0,0,0,0,0,0,0,0,0,0,0,0,0,0,0,0,0,0,0,0,0,0,0,0,0,0,0,0,0,0,0,1.5675,1.5675,0,1.5743,1.5744,1.5744,1.569,1.5688,1.5685,1.5683,1.5754,1.5758,1.5762,0,0,0,0,0,0,0,0,0,0,0,0,0,1.5498,1.5501,1.5675,1.5675,1.5676,1.5743,1.5744,1.5745,1.569,1.5687,1.5685,1.5682,1.5752,1.5757,1.5762,0,0,0,0,0,0,0,0,0,0,0,0,0,1.5571,1.5502,1.5674,1.5657,1.5656,1.5742,1.5744,1.5745,1.5691,1.5687,1.5684,1.5681,1.5751,1.5757,1.5763,1.587,0,0,1.5781,1.5784,0,0,0,0,0,0,0,0,1.5567,1.5578,1.5659,1.5659,1.5658,1.5704,1.5707,1.5787,1.5692,1.5678,1.5683,1.5679,1.574,1.5747,1.5767,1.5873,1.5876,1.5782,1.5785,1.5788,1.579,0,0,0,0,0,0,0,1.5562,1.5574,1.5702,1.566,1.5659,1.5646,1.5653,1.5722,1.5728,1.5679,1.5675,1.5684,1.5739,1.5762,1.5769,1.5877,1.5782,1.5787,1.5791,1.5793,1.6072,1.6076,0,0,0,0,0,0,1.5558,1.557,1.5699,1.5704,1.5603,1.5652,1.5659,1.5693,1.5727,1.5729,1.5687,1.5681,1.5753,1.5762,1.5771,1.5896,1.5788,1.5794,1.5797,1.6068,1.6073,1.6077,0,0,0,0,0,0,1.5555,1.557,1.5697,1.5636,1.5651,1.5659,1.5697,1.5696,1.5718,1.5733,1.5733,1.5708,1.5751,1.5762,1.5845,1.5898,1.5796,1.5802,1.6064,1.607,1.6075,1.615,0,0,0,0,0,0,1.555,1.557,1.561,1.5637,1.5655,1.577,1.57,1.57,1.5729,1.5722,1.5753,1.5755,1.5749,1.5836,1.5851,1.5905,1.5807,1.6059,1.6066,1.6073,1.6143,1.6158,1.617,0,0,0,0,0,1.5544,1.5629,1.5613,1.5628,1.5706,1.5773,1.5783,1.5773,1.5733,1.5774,1.5783,1.5754,1.5891,1.5845,1.5861,1.5918,1.6056,1.6064,1.6073,1.6137,1.6155,1.617,0,0,0,0,0,0,1.5609,1.5633,1.5614,1.5711,1.574,1.5764,1.5815,1.5793,1.5835,1.5826,1.5813,1.5821,1.5907,1.5921,1.587,1.6022,1.5967,1.5979,1.601,1.6027,1.604,1.6034,1.5812,0,0,0,0,0,1.5634,1.5687,1.5705,1.5789,1.5804,1.5807,1.5836,1.5826,1.5856,1.5869,1.5884,1.5914,1.5963,1.5996,1.6043,1.6145,1.615,1.6192,1.6205,1.6217,1.6227,1.628,1.6298,1.6105,1.6105,1.6105,0,0,1.5688,1.5707,1.5741,1.5802,1.5824,1.5878,1.5818,1.5879,1.5919,1.5878,1.5956,1.5969,1.6001,1.6094,1.6135,1.6108,1.6281,1.6227,1.6236,1.624,1.629,1.6309,1.6325,1.6111,1.611,1.6109,0,0,1.5812,1.5833,1.5904,1.5927,1.596,1.5961,1.5978,1.6005,1.6011,1.609,1.6059,1.6107,1.6193,1.6217,1.6241,1.6374,1.6348,1.639,1.646,1.6512,1.6528,1.6541,1.6586,1.6603,1.64,1.64,1.64,0,1.5874,1.5955,1.5943,1.6006,1.6033,1.5998,1.6069,1.6092,1.6139,1.6158,1.6127,1.6233,1.6253,1.6349,1.6382,1.6403,1.6421,1.6385,1.6526,1.654,1.6552,1.6595,1.6612,1.6405,1.6404,1.6404,1.6403,0,1.6028,1.6085,1.6138,1.6183,1.6217,1.6283,1.6282,1.6317,1.6304,1.6309,1.6388,1.6411,1.646,1.6483,1.6472,1.6578,1.656,1.6528,1.6471,1.6575,1.6615,1.6632,1.6411,1.641,1.6408,1.6407,0,0,1.6195,1.6232,1.6252,1.6271,1.6305,1.6348,1.6413,1.6461,1.6491,1.6525,1.6578,1.6651,1.6621,1.6648,1.6639,1.6685,1.6786,1.6647,1.6648,1.667,1.6903,1.6925,1.6944,1.677,1.6773,1.6776,1.6899,0,1.6319,1.6431,1.6422,1.6528,1.6579,1.6547,1.6603,1.663,1.6636,1.668,1.6687,1.6738,1.6696,1.6712,1.6756,1.6765,1.6832,1.6756,1.6818,1.6821,1.6809,1.6965,1.6989,1.7104,1.6915,1.6918,1.692,0,1.6478,1.6516,1.6627,1.6652,1.6673,1.6724,1.6766,1.6809,1.6839,1.684,1.687,1.6853,1.6917,1.6861,1.6949,1.6897,1.6923,1.6931,1.6935,1.6939,1.6875,1.6972,1.7141,1.7158,1.6945,1.6943,1.6941,0,1.6586,1.6665,1.6741,1.6759,1.679,1.6826,1.6841,1.6867,1.6896,1.6934,1.6952,1.6997,1.7021,1.7056,1.7052,1.7011,1.7141,1.7085,1.7143,1.7143,1.717,1.7168,1.7344,1.719,1.719,1.719,1.7189,0,1.6724,1.6792,1.6789,1.6836,1.6911,1.6901,1.6976,1.6987,1.701,1.7058,1.7034,1.7079,1.7071,1.7116,1.7114,1.7186,1.7198,1.72,1.7198,1.7201,1.72,1.7215,1.7206,1.7194,1.7193,1.7192,1.7191,0,1.6856,1.6857,1.6937,1.696,1.6968,1.7022,1.7041,1.7085,1.7089,1.715,1.7163,1.717,1.7222,1.7221,1.7281,1.7279,1.7367,1.7357,1.7357,1.7354,1.7411,1.7405,1.7601,1.7626,1.7458,1.746,1.7461,0,1.6943,1.6995,1.7023,1.7053,1.707,1.7119,1.7148,1.714,1.7171,1.7208,1.7247,1.7297,1.7335,1.742,1.743,1.7475,1.7464,1.753,1.7471,1.7472,1.7463,1.7459,1.7463,1.7541,1.7543,1.7544,1.7546,0,1.7097,1.7094,1.7137,1.718,1.7215,1.7249,1.728,1.7306,1.7301,1.7337,1.739,1.742,1.748,1.7529,1.7572,1.7587,1.7565,1.7565,1.758,1.7582,1.7579,1.7579,1.7386,1.756,1.7558,1.7557,1.7556,1.7556,1.7207,1.7251,1.7277,1.7325,1.7348,1.7377,1.7418,1.7427,1.7471,1.7519,1.7512,1.757,1.7597,1.7653,1.7672,1.7717,1.7693,1.7716,1.7722,1.7727,1.7732,1.7574,1.7725,1.7724,1.7724,1.7724,1.7723,0,1.7357,1.7373,1.7417,1.746,1.7498,1.7475,1.7508,1.7541,1.7592,1.7619,1.7658,1.7717,1.7765,1.7778,1.7824,1.7857,1.7848,1.7869,1.7865,1.7869,1.7751,1.7732,1.7875,1.7875,1.7875,1.7875,1.7875,1.7875,1.744,1.7512,1.7513,1.7595,1.761,1.7666,1.7687,1.7713,1.7735,1.7802,1.7841,1.785,1.7871,1.7918,1.796,1.7963,1.7979,1.8004,1.8003,1.7893,1.7877,1.7863,1.7844,1.8008,1.8009,1.8116,1.8117,1.8117]},{"header":{"parameterUnit":"m.s-1","parameterCategory":1,"la1":30.2991,"la2":30.254,"lo1":-89.0895,"lo2":-89.0444,"dy":0.0017,"dx":0.0017,"nx":28,"ny":28,"refTime":"2025-06-06T09:00:00:Z","depth":0,"parameterNumber":3,"parameterNumberName":"V-component_of_WINDS"},"data":[0,0,0,0,0,0,0,0,0,0,0,0,0,0,0,0,0,0,0,0,0,0,0,0,0,0,0,0,0,0,0,0,0,0,0,0,0,0,0,0,0,0,0,0,0,0,0,0,0,0,0,0,0,0,0,0,0,0,1.9638,1.9639,0,1.9712,1.9713,1.9713,1.9672,1.967,1.9668,1.9666,1.9744,1.9748,1.9752,0,0,0,0,0,0,0,0,0,0,0,0,0,1.9464,1.9467,1.9638,1.9639,1.964,1.9712,1.9713,1.9714,1.9672,1.967,1.9667,1.9665,1.9743,1.9748,1.9753,0,0,0,0,0,0,0,0,0,0,0,0,0,1.9539,1.9468,1.9638,1.9628,1.9628,1.9711,1.9713,1.9714,1.9673,1.967,1.9667,1.9664,1.9742,1.9747,1.9753,1.9852,0,0,1.9772,1.9774,0,0,0,0,0,0,0,0,1.9534,1.9545,1.9628,1.9629,1.9629,1.9679,1.968,1.976,1.9674,1.9656,1.9666,1.9662,1.9726,1.9733,1.9753,1.9856,1.9859,1.9772,1.9776,1.9778,1.978,0,0,0,0,0,0,0,1.9529,1.9542,1.9667,1.963,1.963,1.962,1.9628,1.9695,1.9707,1.9657,1.9654,1.9663,1.9725,1.9748,1.9755,1.986,1.9772,1.9777,1.9781,1.9783,2.0047,2.005,0,0,0,0,0,0,1.9524,1.9538,1.9665,1.9669,1.9573,1.9626,1.9634,1.9666,1.9706,1.9709,1.9666,1.9661,1.9739,1.9748,1.9757,1.9875,1.9778,1.9784,1.9787,2.0043,2.0047,2.0051,0,0,0,0,0,0,1.9521,1.9536,1.9662,1.9603,1.9618,1.9632,1.9669,1.9669,1.9692,1.9713,1.9715,1.9687,1.9737,1.9749,1.9828,1.9877,1.9787,1.9792,2.0039,2.0044,2.0049,2.0112,0,0,0,0,0,0,1.9516,1.9535,1.9572,1.9604,1.9621,1.9731,1.9672,1.9673,1.9702,1.9697,1.9733,1.9736,1.9735,1.982,1.9834,1.9884,1.9797,2.0035,2.0042,2.0048,2.0105,2.0118,2.0129,0,0,0,0,0,1.951,1.9588,1.9574,1.959,1.9668,1.9734,1.9744,1.9741,1.9706,1.9744,1.9757,1.9735,1.987,1.9828,1.9844,1.9896,2.0032,2.004,2.0047,2.01,2.0116,2.0129,0,0,0,0,0,0,1.9563,1.9592,1.9577,1.9667,1.9698,1.9727,1.9774,1.9758,1.98,1.9793,1.9788,1.9797,1.9879,1.9896,1.9849,1.9994,1.9945,1.9957,1.998,1.9995,2.0007,2.0001,1.9802,0,0,0,0,0,1.9584,1.9635,1.9658,1.9735,1.9751,1.976,1.9789,1.9784,1.9816,1.9829,1.9849,1.9882,1.9931,1.9964,2.0011,2.0107,2.0115,2.0151,2.0163,2.0173,2.0183,2.0234,2.0251,2.0076,2.0076,2.0076,0,0,1.9631,1.9653,1.9685,1.9746,1.977,1.9823,1.9772,1.983,1.9869,1.9838,1.9914,1.993,1.9966,2.0054,2.0094,2.0071,2.0232,2.0183,2.019,2.0195,2.0244,2.0261,2.0275,2.0081,2.008,2.0079,0,0,1.9741,1.9763,1.983,1.9854,1.989,1.9895,1.9911,1.9942,1.9951,2.0026,2.0004,2.0051,2.0137,2.0164,2.0189,2.0309,2.029,2.0325,2.0387,2.0438,2.0452,2.0464,2.0507,2.0522,2.0334,2.0334,2.0335,0,1.9795,1.9872,1.9866,1.9926,1.9954,1.9927,1.9994,2.0019,2.0068,2.0088,2.0061,2.0167,2.019,2.0284,2.0313,2.0335,2.0353,2.032,2.045,2.0462,2.0473,2.0514,2.053,2.0338,2.0338,2.0338,2.0337,0,1.9936,1.999,2.004,2.0087,2.012,2.0184,2.0188,2.0222,2.0214,2.0222,2.03,2.0326,2.0378,2.04,2.0393,2.0493,2.0477,2.045,2.0401,2.0494,2.0532,2.0548,2.0344,2.0343,2.0341,2.034,0,0,2.0082,2.0124,2.0143,2.0164,2.0201,2.0243,2.0305,2.0355,2.0384,2.042,2.0472,2.0545,2.052,2.0548,2.0544,2.0588,2.0682,2.0556,2.0557,2.0578,2.0793,2.0813,2.0831,2.0669,2.0672,2.0675,2.079,0,2.0195,2.0303,2.0299,2.0399,2.045,2.0425,2.0479,2.0508,2.0518,2.0562,2.0573,2.0625,2.0588,2.0605,2.0648,2.0661,2.0725,2.0653,2.0718,2.0721,2.0709,2.0851,2.0872,2.0979,2.0805,2.0807,2.0809,0,2.0341,2.038,2.0485,2.0514,2.0535,2.0584,2.0628,2.0671,2.0704,2.0708,2.0739,2.0728,2.0791,2.0741,2.0829,2.078,2.0806,2.0817,2.0821,2.0827,2.077,2.086,2.1014,2.103,2.0833,2.0831,2.0829,0,2.0437,2.0515,2.0588,2.0607,2.0643,2.0678,2.0695,2.0724,2.0754,2.0793,2.0812,2.0859,2.0885,2.0921,2.0923,2.0886,2.1012,2.0962,2.1017,2.1017,2.1044,2.1043,2.1204,2.1062,2.1062,2.1062,2.1061,0,2.0563,2.0628,2.0632,2.0677,2.0749,2.0744,2.0817,2.083,2.0856,2.0904,2.0886,2.0931,2.0931,2.0977,2.0979,2.1051,2.1063,2.1068,2.1068,2.107,2.1069,2.1087,2.108,2.1066,2.1065,2.1064,2.1063,0,2.0682,2.0687,2.0765,2.0792,2.08,2.0853,2.0876,2.0919,2.0927,2.0987,2.1001,2.1014,2.1067,2.1072,2.1135,2.1136,2.1223,2.1215,2.1212,2.1211,2.1266,2.126,2.1444,2.1468,2.1311,2.1312,2.1313,0,2.0762,2.0812,2.0844,2.0874,2.0892,2.0941,2.0971,2.0968,2.1,2.1041,2.1079,2.113,2.1171,2.1258,2.1273,2.1321,2.1313,2.1374,2.132,2.1321,2.1314,2.1311,2.1316,2.1385,2.1387,2.1388,2.1389,0,2.0904,2.0903,2.0946,2.0991,2.1026,2.1061,2.1094,2.112,2.1121,2.1158,2.1212,2.1244,2.1307,2.1358,2.1405,2.1423,2.1407,2.1406,2.1421,2.1424,2.1419,2.1422,2.124,2.1402,2.1401,2.14,2.1399,2.1398,2.1006,2.1048,2.1077,2.1126,2.115,2.1181,2.1222,2.1234,2.1279,2.1329,2.1325,2.1385,2.1416,2.1477,2.1498,2.1545,2.1525,2.1547,2.1553,2.1558,2.1563,2.1412,2.1554,2.1553,2.1553,2.1553,2.1552,0,2.1146,2.1163,2.1208,2.1253,2.1292,2.1272,2.1307,2.134,2.1393,2.1423,2.1463,2.1525,2.1574,2.1593,2.1642,2.1676,2.1669,2.1688,2.1686,2.169,2.1579,2.1561,2.1693,2.1693,2.1693,2.1693,2.1692,2.1692,2.1223,2.1294,2.1297,2.138,2.1397,2.1454,2.1476,2.1504,2.1528,2.1597,2.1638,2.1649,2.1675,2.1725,2.177,2.1774,2.1793,2.1815,2.1816,2.1712,2.1698,2.1685,2.1667,2.1819,2.182,2.1923,2.1924,2.1925]}]]